Time,TemperatureF,DewpointF,PressureIn,WindDirection,WindDirectionDegrees,WindSpeedMPH,WindSpeedGustMPH,Humidity,HourlyPrecipIn,Conditions,Clouds,dailyrainin,SoftwareType,DateUTC
2013-07-28 00:13:00,62.3,62.0,30.02,SSW,193,0.0,0.0,97,0.00,,,0.00,weatherlink.com 1.10,2013-07-28 04:13:00,
2013-07-28 00:28:00,62.1,61.0,30.01,SSW,193,0.0,0.0,97,0.00,,,0.00,weatherlink.com 1.10,2013-07-28 04:28:00,
2013-07-28 00:43:00,61.9,61.0,30.01,SSW,208,0.0,0.0,97,0.00,,,0.00,weatherlink.com 1.10,2013-07-28 04:43:00,
2013-07-28 00:58:00,61.4,61.0,30.00,SSW,208,0.0,0.0,97,0.00,,,0.00,weatherlink.com 1.10,2013-07-28 04:58:00,
2013-07-28 01:13:00,61.5,61.0,30.00,SSW,208,0.0,0.0,97,0.00,,,0.00,weatherlink.com 1.10,2013-07-28 05:13:00,
2013-07-28 01:28:00,60.6,60.0,30.00,SW,218,0.0,1.0,97,0.00,,,0.00,weatherlink.com 1.10,2013-07-28 05:28:00,
2013-07-28 01:43:00,60.3,60.0,30.00,SW,218,0.0,0.0,97,0.00,,,0.00,weatherlink.com 1.10,2013-07-28 05:43:00,
2013-07-28 01:58:00,60.6,60.0,30.00,SE,145,0.0,1.0,97,0.00,,,0.00,weatherlink.com 1.10,2013-07-28 05:58:00,
2013-07-28 02:13:00,60.3,60.0,30.01,SSE,158,0.0,1.0,97,0.00,,,0.00,weatherlink.com 1.10,2013-07-28 06:13:00,
2013-07-28 02:28:00,59.9,59.0,30.01,SSE,165,0.0,1.0,97,0.00,,,0.00,weatherlink.com 1.10,2013-07-28 06:28:00,
2013-07-28 02:43:00,59.7,59.0,30.00,SSE,148,0.0,1.0,98,0.00,,,0.00,weatherlink.com 1.10,2013-07-28 06:43:00,
2013-07-28 02:58:00,59.7,59.0,30.01,SSE,167,0.0,1.0,98,0.00,,,0.00,weatherlink.com 1.10,2013-07-28 06:58:00,
2013-07-28 03:13:00,59.4,59.0,30.01,SSE,167,0.0,1.0,98,0.00,,,0.00,weatherlink.com 1.10,2013-07-28 07:13:00,
2013-07-28 03:28:00,59.3,59.0,30.02,SE,127,1.0,1.0,98,0.00,,,0.00,weatherlink.com 1.10,2013-07-28 07:28:00,
2013-07-28 03:43:00,59.2,59.0,30.01,South,187,0.0,0.0,98,0.00,,,0.00,weatherlink.com 1.10,2013-07-28 07:43:00,
2013-07-28 03:58:00,59.1,59.0,30.01,South,172,0.0,1.0,98,0.00,,,0.00,weatherlink.com 1.10,2013-07-28 07:58:00,
2013-07-28 04:13:00,58.9,58.0,30.02,South,173,0.0,0.0,98,0.00,,,0.00,weatherlink.com 1.10,2013-07-28 08:13:00,
2013-07-28 04:28:00,59.2,59.0,30.02,SW,217,0.0,1.0,98,0.00,,,0.00,weatherlink.com 1.10,2013-07-28 08:28:00,
2013-07-28 04:43:00,59.1,59.0,30.01,SSW,211,0.0,0.0,98,0.00,,,0.00,weatherlink.com 1.10,2013-07-28 08:43:00,
2013-07-28 04:58:00,59.0,59.0,30.00,WSW,249,1.0,2.0,98,0.00,,,0.00,weatherlink.com 1.10,2013-07-28 08:58:00,
2013-07-28 05:13:00,59.0,59.0,30.02,SW,235,0.0,1.0,98,0.00,,,0.00,weatherlink.com 1.10,2013-07-28 09:13:00,
2013-07-28 05:29:00,58.7,58.0,30.01,WNW,288,2.0,3.0,98,0.00,,,0.00,weatherlink.com 1.10,2013-07-28 09:29:00,
2013-07-28 05:44:00,58.7,58.0,30.01,SW,232,0.0,2.0,98,0.00,,,0.00,weatherlink.com 1.10,2013-07-28 09:44:00,
2013-07-28 05:59:00,58.8,58.0,30.02,SSE,165,0.0,1.0,98,0.00,,,0.00,weatherlink.com 1.10,2013-07-28 09:59:00,
2013-07-28 06:14:00,58.8,58.0,30.01,SSW,203,0.0,1.0,98,0.00,,,0.00,weatherlink.com 1.10,2013-07-28 10:14:00,
2013-07-28 06:29:00,59.2,59.0,30.01,WSW,250,1.0,3.0,99,0.00,,,0.00,weatherlink.com 1.10,2013-07-28 10:29:00,
2013-07-28 06:44:00,59.9,60.0,30.01,SW,236,0.0,2.0,99,0.00,,,0.00,weatherlink.com 1.10,2013-07-28 10:44:00,
2013-07-28 06:59:00,60.4,60.0,30.01,WNW,299,2.0,3.0,99,0.00,,,0.00,weatherlink.com 1.10,2013-07-28 10:59:00,
2013-07-28 07:14:00,61.1,61.0,30.02,WSW,239,0.0,3.0,99,0.00,,,0.00,weatherlink.com 1.10,2013-07-28 11:14:00,
2013-07-28 07:29:00,61.7,62.0,30.03,SSE,162,0.0,1.0,99,0.00,,,0.00,weatherlink.com 1.10,2013-07-28 11:29:00,
2013-07-28 07:44:00,62.2,62.0,30.02,WSW,243,1.0,2.0,99,0.00,,,0.00,weatherlink.com 1.10,2013-07-28 11:44:00,
2013-07-28 07:59:00,62.6,62.0,30.01,WNW,283,2.0,4.0,99,0.00,,,0.00,weatherlink.com 1.10,2013-07-28 11:59:00,
2013-07-28 08:14:00,62.9,63.0,30.01,WSW,242,0.0,3.0,99,0.00,,,0.00,weatherlink.com 1.10,2013-07-28 12:14:00,
2013-07-28 08:29:00,63.2,63.0,30.01,SW,235,0.0,2.0,99,0.00,,,0.00,weatherlink.com 1.10,2013-07-28 12:29:00,
2013-07-28 08:44:00,63.4,63.0,30.01,SW,219,1.0,2.0,99,0.00,,,0.00,weatherlink.com 1.10,2013-07-28 12:44:00,
2013-07-28 08:59:00,63.3,63.0,30.01,NNE,32,0.0,3.0,98,0.00,,,0.00,weatherlink.com 1.10,2013-07-28 12:59:00,
2013-07-28 09:14:00,63.6,63.0,30.01,North,11,0.0,2.0,99,0.00,,,0.00,weatherlink.com 1.10,2013-07-28 13:14:00,
2013-07-28 09:29:00,63.9,64.0,30.01,East,84,0.0,2.0,99,0.00,,,0.00,weatherlink.com 1.10,2013-07-28 13:29:00,
2013-07-28 09:44:00,64.3,64.0,30.01,East,79,2.0,2.0,98,0.00,,,0.00,weatherlink.com 1.10,2013-07-28 13:44:00,
2013-07-28 09:59:00,64.6,64.0,30.01,ESE,113,0.0,2.0,98,0.00,,,0.00,weatherlink.com 1.10,2013-07-28 13:59:00,
2013-07-28 10:14:00,64.9,64.0,30.02,East,100,2.0,3.0,98,0.00,,,0.00,weatherlink.com 1.10,2013-07-28 14:14:00,
2013-07-28 10:29:00,65.2,65.0,30.03,South,174,0.0,2.0,98,0.00,,,0.00,weatherlink.com 1.10,2013-07-28 14:29:00,
2013-07-28 10:44:00,65.3,65.0,30.03,NE,55,0.0,3.0,97,0.00,,,0.00,weatherlink.com 1.10,2013-07-28 14:44:00,
2013-07-28 10:59:00,65.2,64.0,30.03,ENE,61,2.0,4.0,97,0.00,,,0.00,weatherlink.com 1.10,2013-07-28 14:59:00,
2013-07-28 11:14:00,65.1,64.0,30.03,SE,136,3.0,8.0,97,0.00,,,0.00,weatherlink.com 1.10,2013-07-28 15:14:00,
2013-07-28 11:29:00,65.1,64.0,30.04,SSE,150,4.0,6.0,96,0.00,,,0.00,weatherlink.com 1.10,2013-07-28 15:29:00,
2013-07-28 11:44:00,65.2,64.0,30.04,SE,124,0.0,7.0,97,0.00,,,0.00,weatherlink.com 1.10,2013-07-28 15:44:00,
2013-07-28 11:59:00,65.4,64.0,30.04,SE,136,1.0,6.0,96,0.00,,,0.00,weatherlink.com 1.10,2013-07-28 15:59:00,
2013-07-28 12:14:00,65.6,65.0,30.04,SE,141,3.0,3.0,96,0.02,,,0.02,weatherlink.com 1.10,2013-07-28 16:14:00,
2013-07-28 12:29:00,65.6,65.0,30.03,ESE,118,0.0,5.0,96,0.04,,,0.04,weatherlink.com 1.10,2013-07-28 16:29:00,
2013-07-28 12:44:00,65.6,65.0,30.03,SSE,148,3.0,4.0,96,0.05,,,0.05,weatherlink.com 1.10,2013-07-28 16:44:00,
2013-07-28 12:59:00,65.8,65.0,30.02,ESE,112,1.0,3.0,96,0.06,,,0.06,weatherlink.com 1.10,2013-07-28 16:59:00,
2013-07-28 13:14:00,65.9,65.0,30.02,East,96,2.0,4.0,96,0.05,,,0.07,weatherlink.com 1.10,2013-07-28 17:14:00,
2013-07-28 13:29:00,66.0,65.0,30.02,East,94,2.0,4.0,96,0.04,,,0.08,weatherlink.com 1.10,2013-07-28 17:29:00,
2013-07-28 13:44:00,66.3,65.0,30.01,East,86,1.0,4.0,96,0.04,,,0.09,weatherlink.com 1.10,2013-07-28 17:44:00,
2013-07-28 14:00:00,66.3,65.0,30.01,East,95,1.0,5.0,96,0.04,,,0.10,weatherlink.com 1.10,2013-07-28 18:00:00,
2013-07-28 14:14:00,66.2,65.0,30.01,East,94,4.0,9.0,96,0.03,,,0.10,weatherlink.com 1.10,2013-07-28 18:14:00,
2013-07-28 14:29:00,66.6,66.0,30.00,ESE,110,2.0,4.0,97,0.03,,,0.11,weatherlink.com 1.10,2013-07-28 18:29:00,
2013-07-28 14:44:00,67.2,66.0,29.99,East,96,0.0,5.0,96,0.02,,,0.11,weatherlink.com 1.10,2013-07-28 18:44:00,
2013-07-28 14:59:00,67.6,67.0,29.99,East,94,1.0,2.0,96,0.01,,,0.11,weatherlink.com 1.10,2013-07-28 18:59:00,
2013-07-28 15:14:00,68.2,67.0,29.99,East,98,2.0,5.0,94,0.01,,,0.11,weatherlink.com 1.10,2013-07-28 19:14:00,
2013-07-28 15:29:00,68.7,67.0,29.99,ESE,108,1.0,2.0,93,0.00,,,0.11,weatherlink.com 1.10,2013-07-28 19:29:00,
2013-07-28 15:44:00,68.9,66.0,30.00,SE,143,2.0,5.0,90,0.00,,,0.11,weatherlink.com 1.10,2013-07-28 19:44:00,
2013-07-28 15:59:00,68.3,65.0,30.01,ESE,120,1.0,6.0,88,0.00,,,0.11,weatherlink.com 1.10,2013-07-28 19:59:00,
2013-07-28 16:15:00,67.7,64.0,30.00,ESE,108,0.0,5.0,89,0.00,,,0.11,weatherlink.com 1.10,2013-07-28 20:15:00,
2013-07-28 16:29:00,67.3,65.0,30.00,East,96,3.0,4.0,91,0.00,,,0.11,weatherlink.com 1.10,2013-07-28 20:29:00,
2013-07-28 16:44:00,66.4,64.0,30.00,ESE,107,5.0,5.0,92,0.00,,,0.11,weatherlink.com 1.10,2013-07-28 20:44:00,
2013-07-28 16:59:00,66.4,64.0,30.00,East,82,2.0,3.0,93,0.00,,,0.11,weatherlink.com 1.10,2013-07-28 20:59:00,
2013-07-28 17:14:00,66.6,65.0,30.00,East,93,1.0,3.0,93,0.00,,,0.11,weatherlink.com 1.10,2013-07-28 21:14:00,
2013-07-28 17:29:00,67.0,65.0,30.00,East,90,1.0,2.0,92,0.00,,,0.11,weatherlink.com 1.10,2013-07-28 21:29:00,
2013-07-28 17:44:00,67.1,65.0,30.00,East,99,1.0,2.0,92,0.00,,,0.11,weatherlink.com 1.10,2013-07-28 21:44:00,
2013-07-28 17:59:00,67.0,65.0,30.00,ESE,107,3.0,3.0,92,0.00,,,0.11,weatherlink.com 1.10,2013-07-28 21:59:00,
2013-07-28 18:15:00,66.9,64.0,30.00,ESE,105,2.0,7.0,90,0.00,,,0.11,weatherlink.com 1.10,2013-07-28 22:15:00,
2013-07-28 18:30:00,66.9,64.0,30.00,East,81,3.0,5.0,91,0.00,,,0.11,weatherlink.com 1.10,2013-07-28 22:30:00,
2013-07-28 18:45:00,66.7,64.0,30.00,ESE,107,5.0,5.0,91,0.00,,,0.11,weatherlink.com 1.10,2013-07-28 22:45:00,
2013-07-28 19:00:00,66.6,64.0,30.00,ESE,106,2.0,4.0,91,0.00,,,0.11,weatherlink.com 1.10,2013-07-28 23:00:00,
2013-07-28 19:15:00,66.7,64.0,30.00,East,80,2.0,3.0,91,0.00,,,0.11,weatherlink.com 1.10,2013-07-28 23:15:00,
2013-07-28 19:30:00,66.8,64.0,30.00,East,90,1.0,2.0,91,0.00,,,0.11,weatherlink.com 1.10,2013-07-28 23:30:00,
2013-07-28 19:45:00,66.6,64.0,30.00,East,99,3.0,4.0,91,0.00,,,0.11,weatherlink.com 1.10,2013-07-28 23:45:00,
2013-07-28 20:00:00,66.6,64.0,30.00,East,99,2.0,4.0,91,0.00,,,0.11,weatherlink.com 1.10,2013-07-29 00:00:00,
2013-07-28 20:15:00,66.4,64.0,30.00,East,94,2.0,3.0,92,0.00,,,0.11,weatherlink.com 1.10,2013-07-29 00:15:00,
2013-07-28 20:30:00,66.3,64.0,30.00,East,93,1.0,2.0,92,0.00,,,0.11,weatherlink.com 1.10,2013-07-29 00:30:00,
2013-07-28 20:45:00,66.3,64.0,30.01,East,90,1.0,1.0,92,0.00,,,0.11,weatherlink.com 1.10,2013-07-29 00:45:00,
2013-07-28 21:00:00,66.3,64.0,30.01,East,95,1.0,2.0,92,0.00,,,0.11,weatherlink.com 1.10,2013-07-29 01:00:00,
2013-07-28 21:15:00,66.3,64.0,30.01,East,96,1.0,2.0,92,0.00,,,0.11,weatherlink.com 1.10,2013-07-29 01:15:00,
2013-07-28 21:30:00,66.2,64.0,30.01,East,98,1.0,4.0,93,0.00,,,0.11,weatherlink.com 1.10,2013-07-29 01:30:00,
2013-07-28 22:00:00,65.8,64.0,30.00,East,91,2.0,5.0,94,0.00,,,0.11,weatherlink.com 1.10,2013-07-29 02:00:00,
2013-07-28 22:30:00,65.3,64.0,30.00,East,100,0.0,5.0,95,0.00,,,0.11,weatherlink.com 1.10,2013-07-29 02:30:00,
2013-07-28 22:45:00,65.1,64.0,30.01,South,170,3.0,4.0,96,0.00,,,0.11,weatherlink.com 1.10,2013-07-29 02:45:00,
2013-07-28 23:00:00,64.8,64.0,30.00,SE,131,0.0,2.0,96,0.00,,,0.11,weatherlink.com 1.10,2013-07-29 03:00:00,
2013-07-28 23:30:00,64.5,64.0,30.01,SE,136,0.0,2.0,97,0.00,,,0.11,weatherlink.com 1.10,2013-07-29 03:30:00,
2013-07-28 23:45:00,64.5,64.0,30.01,ESE,119,0.0,0.0,97,0.00,,,0.11,weatherlink.com 1.10,2013-07-29 03:45:00,